When you browse on this site, cookies collect data to enhance your experience and personalize the content and advertising you see.
Visit our Privacy Policy to learn more. By continuing to use the site, you agree to this use of cookies and data.
  • In Hungary
  • List of Countries
  • For 7 days
  • Water Temperature
  • Satellite Maps
  • Weather Map
  • News
  • Weather Widgets
  • user-avatar
    Login

    Hourly Weather Gereyhanovskoe

    Today, 18 November, Sunday

    Time Temperature Precipitation Wind Pressure Humidity
    00:00 +8°C° 0 mm 3 mps 740 mmHg 79%
    01:00 +8°C° 0 mm 2 mps 740 mmHg 77%
    02:00 +7°C° 0 mm 2 mps 740 mmHg 75%
    03:00 +7°C° 0 mm 3 mps 739 mmHg 72%
    04:00 +7°C° 0 mm 3 mps 739 mmHg 73%
    05:00 +7°C° 0 mm 2 mps 739 mmHg 73%
    06:00 +7°C° 0 mm 2 mps 739 mmHg 73%
    07:00 +7°C° 0 mm 2 mps 739 mmHg 70%
    08:00 +8°C° 0 mm 2 mps 739 mmHg 66%
    09:00 +9°C° 0 mm 2 mps 739 mmHg 63%
    10:00 +10°C° 0 mm 2 mps 739 mmHg 62%
    11:00 +10°C° 0 mm 2 mps 739 mmHg 61%
    12:00 +12°C° 0 mm 2 mps 739 mmHg 61%
    13:00 +10°C° 0 mm 2 mps 738 mmHg 65%
    14:00 +10°C° 0 mm 2 mps 738 mmHg 69%
    15:00 +10°C° 0 mm 2 mps 738 mmHg 73%
    16:00 +9°C° 0 mm 2 mps 739 mmHg 77%
    17:00 +8°C° 0 mm 2 mps 739 mmHg 81%
    18:00 +8°C° 0 mm 1 mps 739 mmHg 84%
    19:00 +8°C° 0 mm 1 mps 739 mmHg 82%
    20:00 +8°C° 0 mm 1 mps 739 mmHg 80%
    21:00 +8°C° 0 mm 1 mps 739 mmHg 77%
    22:00 +8°C° 0 mm 1 mps 739 mmHg 74%
    23:00 +7°C° 0 mm 1 mps 739 mmHg 71%

    Tomorrow, 19 November, Monday

    Time Temperature Precipitation Wind Pressure Humidity
    00:00 +7°C° 0 mm 1 mps 739 mmHg 67%
    01:00 +7°C° 0 mm 1 mps 739 mmHg 67%
    02:00 +7°C° 0 mm 1 mps 739 mmHg 68%
    03:00 +7°C° 0 mm 1 mps 739 mmHg 68%
    04:00 +7°C° 0 mm 1 mps 740 mmHg 68%
    05:00 +7°C° 0 mm 1 mps 740 mmHg 69%
    06:00 +6°C° 0 mm 1 mps 740 mmHg 69%
    07:00 +6°C° 0 mm 2 mps 740 mmHg 66%
    08:00 +7°C° 0 mm 2 mps 740 mmHg 63%
    09:00 +8°C° 0 mm 2 mps 741 mmHg 60%
    10:00 +9°C° 0 mm 2 mps 740 mmHg 59%
    11:00 +10°C° 0 mm 2 mps 740 mmHg 59%
    12:00 +10°C° 0 mm 2 mps 740 mmHg 58%
    13:00 +10°C° 0 mm 2 mps 740 mmHg 61%
    14:00 +10°C° 0 mm 2 mps 740 mmHg 65%
    15:00 +10°C° 0 mm 2 mps 740 mmHg 68%
    16:00 +9°C° 0 mm 2 mps 740 mmHg 69%
    17:00 +9°C° 0 mm 1 mps 740 mmHg 71%
    18:00 +8°C° 0 mm 1 mps 740 mmHg 73%
    19:00 +7°C° 0 mm 2 mps 740 mmHg 70%
    20:00 +7°C° 0 mm 2 mps 740 mmHg 67%
    21:00 +7°C° 0 mm 2 mps 740 mmHg 64%
    22:00 +7°C° 0 mm 2 mps 740 mmHg 62%
    23:00 +7°C° 0 mm 3 mps 740 mmHg 61%

    Day after tomorrow, 20 November, Tuesday

    Time Temperature Precipitation Wind Pressure Humidity
    00:00 +7°C° 0 mm 3 mps 740 mmHg 59%
    01:00 +7°C° 0 mm 3 mps 739 mmHg 58%
    02:00 +7°C° 0 mm 3 mps 739 mmHg 56%
    03:00 +7°C° 0 mm 3 mps 738 mmHg 55%
    04:00 +8°C° 0 mm 3 mps 738 mmHg 54%
    05:00 +8°C° 0 mm 3 mps 737 mmHg 53%
    06:00 +8°C° 0 mm 2 mps 737 mmHg 52%
    07:00 +9°C° 0 mm 2 mps 737 mmHg 50%
    08:00 +12°C° 0 mm 2 mps 737 mmHg 47%
    09:00 +14°C° 0 mm 2 mps 737 mmHg 44%
    10:00 +14°C° 0 mm 2 mps 736 mmHg 44%
    11:00 +15°C° 0 mm 2 mps 736 mmHg 45%
    12:00 +16°C° 0 mm 2 mps 735 mmHg 45%
    13:00 +16°C° 0 mm 2 mps 735 mmHg 48%
    14:00 +15°C° 0 mm 2 mps 734 mmHg 52%
    15:00 +15°C° 0 mm 2 mps 734 mmHg 55%
    16:00 +14°C° 0 mm 2 mps 734 mmHg 57%
    17:00 +13°C° 0 mm 2 mps 734 mmHg 59%
    18:00 +12°C° 0 mm 2 mps 734 mmHg 61%
    19:00 +11°C° 0 mm 3 mps 734 mmHg 62%
    20:00 +11°C° 0 mm 3 mps 734 mmHg 62%
    21:00 +11°C° 0 mm 3 mps 734 mmHg 63%
    22:00 +11°C° 0 mm 3 mps 734 mmHg 61%
    23:00 +11°C° 0 mm 3 mps 733 mmHg 60%

    21 November, Wednesday

    Time Temperature Precipitation Wind Pressure Humidity
    00:00 +11°C° 0 mm 3 mps 733 mmHg 58%
    01:00 +10°C° 0 mm 3 mps 733 mmHg 60%
    02:00 +10°C° 0 mm 3 mps 733 mmHg 62%
    03:00 +10°C° 0 mm 4 mps 733 mmHg 63%
    04:00 +8°C° 0 mm 4 mps 733 mmHg 66%
    05:00 +8°C° 0 mm 4 mps 733 mmHg 68%
    06:00 +7°C° 0 mm 4 mps 733 mmHg 70%
    07:00 +8°C° 0 mm 5 mps 734 mmHg 68%
    08:00 +9°C° 0 mm 5 mps 734 mmHg 66%
    09:00 +10°C° 0 mm 6 mps 735 mmHg 64%
    10:00 +10°C° 0 mm 5 mps 735 mmHg 64%
    11:00 +12°C° 0 mm 4 mps 734 mmHg 63%
    12:00 +12°C° 0 mm 4 mps 734 mmHg 63%
    13:00 +12°C° 0 mm 4 mps 734 mmHg 65%
    14:00 +11°C° 0 mm 4 mps 734 mmHg 68%
    15:00 +11°C° 0 mm 4 mps 734 mmHg 70%
    16:00 +10°C° 0 mm 4 mps 735 mmHg 75%
    17:00 +9°C° 0 mm 3 mps 735 mmHg 80%
    18:00 +8°C° 0 mm 3 mps 735 mmHg 85%
    19:00 +8°C° 0 mm 3 mps 736 mmHg 85%
    20:00 +8°C° 0 mm 3 mps 736 mmHg 85%
    21:00 +8°C° 0 mm 3 mps 736 mmHg 85%
    22:00 +8°C° 0 mm 3 mps 736 mmHg 86%
    23:00 +8°C° 0 mm 3 mps 736 mmHg 86%

    22 November, Thursday

    Time Temperature Precipitation Wind Pressure Humidity
    00:00 +7°C° 0 mm 3 mps 736 mmHg 87%
    01:00 +7°C° 0 mm 3 mps 736 mmHg 87%
    02:00 +7°C° 0 mm 3 mps 736 mmHg 87%
    03:00 +7°C° 0 mm 2 mps 735 mmHg 88%
    04:00 +7°C° 0 mm 2 mps 735 mmHg 88%
    05:00 +7°C° 0 mm 2 mps 735 mmHg 88%
    06:00 +7°C° 0 mm 2 mps 735 mmHg 88%
    07:00 +7°C° 0 mm 2 mps 735 mmHg 85%
    08:00 +8°C° 0 mm 2 mps 735 mmHg 81%
    09:00 +9°C° 0 mm 2 mps 736 mmHg 78%
    10:00 +9°C° 0 mm 2 mps 735 mmHg 77%
    11:00 +10°C° 0 mm 2 mps 735 mmHg 76%
    12:00 +10°C° 0 mm 2 mps 734 mmHg 75%
    13:00 +10°C° 0 mm 2 mps 734 mmHg 77%
    14:00 +10°C° 0 mm 2 mps 734 mmHg 80%
    15:00 +10°C° 0 mm 2 mps 734 mmHg 82%
    16:00 +9°C° 0 mm 2 mps 734 mmHg 85%
    17:00 +9°C° 0 mm 2 mps 734 mmHg 87%
    18:00 +8°C° 0 mm 2 mps 734 mmHg 90%
    19:00 +8°C° 0 mm 2 mps 734 mmHg 89%
    20:00 +8°C° 0 mm 2 mps 734 mmHg 88%
    21:00 +8°C° 0 mm 2 mps 734 mmHg 87%
    22:00 +8°C° 0 mm 2 mps 734 mmHg 87%
    23:00 +8°C° 0 mm 2 mps 734 mmHg 87%

    23 November, Friday

    Time Temperature Precipitation Wind Pressure Humidity
    00:00 +7°C° 0 mm 3 mps 734 mmHg 87%
    01:00 +7°C° 0 mm 3 mps 734 mmHg 88%
    02:00 +7°C° 0 mm 3 mps 734 mmHg 89%
    03:00 +7°C° 0 mm 3 mps 734 mmHg 89%
    04:00 +6°C° 0.1 mm 4 mps 734 mmHg 90%
    05:00 +6°C° 0.1 mm 4 mps 735 mmHg 91%
    06:00 +6°C° 0.1 mm 4 mps 735 mmHg 92%
    07:00 +6°C° 0.1 mm 4 mps 736 mmHg 90%
    08:00 +6°C° 0.1 mm 4 mps 736 mmHg 88%
    09:00 +6°C° 0.1 mm 4 mps 737 mmHg 86%
    10:00 +6°C° 0.1 mm 4 mps 737 mmHg 84%
    11:00 +7°C° 0.1 mm 4 mps 737 mmHg 83%
    12:00 +7°C° 0.1 mm 4 mps 737 mmHg 81%
    13:00 +6°C° 0.1 mm 4 mps 738 mmHg 82%
    14:00 +6°C° 0.1 mm 4 mps 738 mmHg 83%
    15:00 +5°C° 0.1 mm 4 mps 739 mmHg 85%
    16:00 +5°C° 0.1 mm 4 mps 739 mmHg 85%
    17:00 +5°C° 0.1 mm 4 mps 740 mmHg 86%
    18:00 +4°C° 0.1 mm 4 mps 741 mmHg 87%
    19:00 +4°C° 0 mm 4 mps 741 mmHg 86%
    20:00 +4°C° 0 mm 3 mps 742 mmHg 86%
    21:00 +4°C° 0 mm 3 mps 742 mmHg 86%
    22:00 +3°C° 0 mm 3 mps 743 mmHg 86%
    23:00 +4°C° 0 mm 2 mps 743 mmHg 86%
    Show more